Weather History for Kenai, AK

Change the Weather History Date:

Thursday, April 17, 2014

  Actual Average Record
Temperature  
Mean Temperature 41 °F -  
Max Temperature 50 °F 42 °F 59 °F (1965)
Min Temperature 34 °F 28 °F 5 °F (1963)
Degree Days  
Heating Degree Days 24    
Moisture  
Dew Point 29 °F    
Average Humidity 66    
Maximum Humidity 86    
Minimum Humidity 38    
Precipitation  
Precipitation 0.00 in - - ()
Sea Level Pressure  
Sea Level Pressure 29.43 in    
Wind  
Wind Speed 7 mph (NNE)    
Max Wind Speed 13 mph    
Max Gust Speed -    
Visibility 10 miles    
Events Rain    
Averages and records for this station are not official NWS values.
T = Trace of Precipitation, MM = Missing Value Source: NWS Daily Summary

Daily Weather History Graph

Daily Weather History Graph

Search for Another Location

Airport:

Trip Planner

Search our weather history database for the weather conditions in past years. The results will help you decide how hot, cold, wet, or windy it might be!

Date:

Astronomy

Apr. 17, 2014 Rise Set
Actual Time 6:39 AM AKDT 9:30 PM AKDT
Civil Twilight 5:51 AM AKDT 10:19 PM AKDT
Nautical Twilight 4:46 AM AKDT 11:25 PM AKDT
Astronomical Twilight 3:01 AM AKDT 1:19 AM AKDT
Moon No Moon Rise 7:48 AM AKDT (4/17)
Length of Visible Light 16h 27m
Length of Day
14h 51m
Waning Gibbous, 93% of the Moon is Illuminated
Apr 17
Waning Gibbous
Apr 21
Last Quarter
Apr 28
New
May 6
First Quarter
May 14
Full

Hourly Weather History & Observations

Time (AKDT) Temp. Windchill Dew Point Humidity Pressure Visibility Wind Dir Wind Speed Gust Speed Precip Events Conditions
12:53 AM 36.0 °F 29.0 °F 30.9 °F 82% 29.56 in 10.0 mi North 9.2 mph - N/A   Scattered Clouds
1:53 AM 37.0 °F 31.6 °F 30.9 °F 79% 29.55 in 10.0 mi North 6.9 mph - N/A   Overcast
2:53 AM 34.0 °F 27.2 °F 28.9 °F 82% 29.53 in 10.0 mi North 8.1 mph - N/A   Overcast
3:53 AM 34.0 °F 29.8 °F 28.9 °F 82% 29.52 in 10.0 mi North 4.6 mph - N/A   Mostly Cloudy
4:53 AM 35.1 °F 32.2 °F 28.9 °F 78% 29.51 in 10.0 mi NNE 3.5 mph - N/A   Overcast
5:53 AM 34.0 °F - 28.9 °F 82% 29.49 in 10.0 mi Calm Calm - N/A   Overcast
6:53 AM 34.0 °F 31.0 °F 28.9 °F 82% 29.48 in 10.0 mi NE 3.5 mph - N/A   Overcast
7:53 AM 36.0 °F 32.1 °F 30.0 °F 79% 29.46 in 10.0 mi NNE 4.6 mph - N/A   Overcast
8:53 AM 39.0 °F 31.4 °F 27.0 °F 62% 29.45 in 10.0 mi NNE 12.7 mph - N/A   Overcast
9:53 AM 41.0 °F 36.4 °F 28.0 °F 60% 29.44 in 10.0 mi NNE 6.9 mph - N/A   Overcast
10:53 AM 43.0 °F 39.5 °F 27.0 °F 53% 29.43 in 10.0 mi NNE 5.8 mph - N/A   Overcast
11:53 AM 46.0 °F 42.5 °F 28.0 °F 50% 29.41 in 10.0 mi NE 6.9 mph - N/A   Overcast
12:53 PM 46.9 °F - 28.0 °F 48% 29.40 in 10.0 mi North 9.2 mph - N/A   Mostly Cloudy
1:53 PM 48.0 °F - 27.0 °F 44% 29.39 in 10.0 mi North 8.1 mph - N/A   Partly Cloudy
2:53 PM 48.9 °F - 27.0 °F 43% 29.37 in 10.0 mi NNE 11.5 mph - N/A   Scattered Clouds
3:53 PM 48.9 °F - 26.1 °F 41% 29.36 in 10.0 mi NNE 10.4 mph - N/A   Overcast
4:53 PM 48.9 °F - 24.1 °F 38% 29.37 in 10.0 mi ENE 5.8 mph - N/A   Overcast
5:53 PM 46.9 °F - 28.0 °F 48% 29.36 in 10.0 mi SW 3.5 mph - N/A   Overcast
6:53 PM 43.0 °F 38.2 °F 32.0 °F 65% 29.36 in 10.0 mi SSW 8.1 mph - N/A   Overcast
7:53 PM 41.0 °F - 32.0 °F 70% 29.35 in 10.0 mi Calm Calm - 0.00 in   Overcast
8:53 PM 37.9 °F 35.5 °F 30.0 °F 73% 29.36 in 10.0 mi SSW 3.5 mph - N/A   Overcast
9:53 PM 37.9 °F - 30.0 °F 73% 29.37 in 10.0 mi Calm Calm - N/A   Overcast
10:53 PM 37.9 °F 33.5 °F 30.9 °F 76% 29.39 in 10.0 mi South 5.8 mph - 0.00 in Rain Light Rain
11:53 PM 36.0 °F 32.1 °F 32.0 °F 86% 29.38 in 10.0 mi South 4.6 mph - 0.00 in   Overcast